Hourly Data Report for September 24, 2021

DRYDEN REGIONAL
ONTARIO
Current Station Operator: NAVCAN

49°49'39.000" N
92°44'39.000" W
412.70 m
6032125
71527
YHD

Download Data

Hourly Data (September 2021)
Hourly Data Report for September 24, 2021
TIME
LST
Temp Definition
°C
Dew Point Definition
°C
Rel Hum Definition
%
Precip. Amount Definition
mm

Wind Dir Definition
10's deg

Wind Spd Definition
km/h
Visibility Definition
km
Stn Press Definition
kPa
Hmdx Definition


Wind Chill Definition


Weather Definition


00:00 13.5 7.5 67 0.0 27 9 16.1 96.13     LegendNANA
01:00 12.9 8.0 72 0.0 27 9 16.1 96.13     LegendNANA
02:00 12.6 8.5 76 0.0 29 9 16.1 96.10     LegendNANA
03:00 12.4 8.4 77 0.0 30 11 16.1 96.09     LegendNANA
04:00 12.5 7.1 69 0.0 32 8 16.1 96.13     LegendNANA
05:00 11.3 6.5 72 0.0 30 9 16.1 96.13     LegendNANA
06:00 10.6 6.8 77 0.0 31 8 16.1 96.10     LegendNANA
07:00 10.2 6.6 78 0.0 29 13 16.1 96.16     LegendNANA
08:00 10.5 6.7 77 0.0 28 13 16.1 96.20     LegendNANA
09:00 11.2 6.7 74 0.0 28 9 16.1 96.20     LegendNANA
10:00 11.7 5.3 65 0.0 29 9 16.1 96.18     LegendNANA
11:00 12.0 5.4 64 0.0 31 11 16.1 96.19     LegendNANA
12:00 12.6 0.5 43 0.0 29 15 16.1 96.18     LegendNANA
13:00 12.8 -0.1 41 0.0 29 11 16.1 96.09     LegendNANA
14:00 13.1 -0.8 38 0.0 26 15 16.1 96.04     LegendNANA
15:00 13.6 0.0 39 0.0 28 13 16.1 95.99     LegendNANA
16:00 12.9 1.5 46 0.0 30 15 16.1 96.00     LegendNANA
17:00 11.9 2.5 52 0.0 29 15 16.1 96.03     LegendNANA
18:00 10.9 3.7 61 0.0 27 9 16.1 96.01     LegendNANA
19:00 9.9 3.7 65 0.0 28 9 16.1 96.00     LegendNANA
20:00 9.3 4.6 72 0.0 26 11 16.1 96.00     Rain
21:00 8.4 5.7 83 0.0 27 17 16.1 96.00     Rain
22:00 7.9 6.3 90 0.0 26 15 16.1 95.95     Rain
23:00 7.7 6.8 94 0.0 26 15 16.1 95.92     Rain

Notes on Data Quality.

Legend

  • E = Estimated
  • M = Missing
  • NA = Not Available*
  • [empty] = Indicates an unobserved value
Date modified: